contact:dominique.lefevre@mio.osupytheas.fr, maurice.libes@osupytheas.fr, didier.mallarino@osupytheas.fr
Project:EMSO http://www.emso-fr.org/EMSO-France
Depth: 2436.0 m
Title:EMSO Ligure Ouest : Data MII capteur MICROCAT
DateTime_Computer,Latitude,Longitude,Temperature,Conductivity,Pressure,DateTime_Instrument
DateTime_Computer,Latitude,Longitude,degC,S m-1,dbar,DateTime_Instrument
2023-01-28T00:00:56Z,42.805,6.029,13.3016,4.60072,2470.637,2023-1-28T02:07:24Z
2023-01-28T00:03:59Z,42.805,6.029,13.3019,4.60072,2470.6,2023-1-28T02:10:27Z
2023-01-28T00:07:02Z,42.805,6.029,13.3017,4.60071,2470.614,2023-1-28T02:13:30Z
2023-01-28T00:10:06Z,42.805,6.029,13.3023,4.60070,2470.6,2023-1-28T02:16:33Z
2023-01-28T00:13:09Z,42.805,6.029,13.3019,4.60072,2470.646,2023-1-28T02:19:36Z
2023-01-28T00:16:12Z,42.805,6.029,13.3019,4.60069,2470.6,2023-1-28T02:22:39Z
2023-01-28T00:19:15Z,42.805,6.029,13.3014,4.60070,2470.637,2023-1-28T02:25:42Z
2023-01-28T00:22:18Z,42.805,6.029,13.3020,4.60073,2470.6,2023-1-28T02:28:45Z
2023-01-28T00:25:21Z,42.805,6.029,13.3018,4.60073,2470.614,2023-1-28T02:31:49Z
2023-01-28T00:28:24Z,42.805,6.029,13.3018,4.60070,2470.624,2023-1-28T02:34:52Z
2023-01-28T00:31:27Z,42.805,6.029,13.3020,4.60073,2470.6,2023-1-28T02:37:55Z
2023-01-28T00:34:30Z,42.805,6.029,13.3019,4.60069,2470.614,2023-1-28T02:40:58Z
2023-01-28T00:37:33Z,42.805,6.029,13.3015,4.60069,2470.6,2023-1-28T02:44:01Z
2023-01-28T00:40:36Z,42.805,6.029,13.3021,4.60072,2470.624,2023-1-28T02:47:04Z
2023-01-28T00:43:39Z,42.805,6.029,13.3016,4.60071,2470.6,2023-1-28T02:50:07Z
2023-01-28T00:46:43Z,42.805,6.029,13.3018,4.60071,2470.624,2023-1-28T02:53:10Z
2023-01-28T00:49:46Z,42.805,6.029,13.3021,4.60072,2470.614,2023-1-28T02:56:13Z
2023-01-28T00:52:49Z,42.805,6.029,13.3021,4.60072,2470.614,2023-1-28T02:59:16Z
2023-01-28T00:55:52Z,42.805,6.029,13.3019,4.60072,2470.6,2023-1-28T03:02:19Z
2023-01-28T00:58:55Z,42.805,6.029,13.3018,4.60069,2470.577,2023-1-28T03:05:23Z
2023-01-28T01:01:58Z,42.805,6.029,13.3020,4.60070,2470.577,2023-1-28T03:08:26Z
2023-01-28T01:05:01Z,42.805,6.029,13.3019,4.60072,2470.6,2023-1-28T03:11:29Z
2023-01-28T01:08:04Z,42.805,6.029,13.3015,4.60071,2470.614,2023-1-28T03:14:32Z
2023-01-28T01:11:07Z,42.805,6.029,13.3022,4.60071,2470.553,2023-1-28T03:17:35Z
2023-01-28T01:14:10Z,42.805,6.029,13.3021,4.60071,2470.637,2023-1-28T03:20:38Z
2023-01-28T01:17:13Z,42.805,6.029,13.3017,4.60072,2470.577,2023-1-28T03:23:41Z
2023-01-28T01:20:16Z,42.805,6.029,13.3021,4.60070,2470.624,2023-1-28T03:26:44Z
2023-01-28T01:23:20Z,42.805,6.029,13.3019,4.60075,2470.6,2023-1-28T03:29:47Z
2023-01-28T01:26:23Z,42.805,6.029,13.3020,4.60072,2470.6,2023-1-28T03:32:50Z
2023-01-28T01:29:26Z,42.805,6.029,13.3021,4.60070,2470.577,2023-1-28T03:35:53Z
2023-01-28T01:32:29Z,42.805,6.029,13.3019,4.60069,2470.553,2023-1-28T03:38:56Z
2023-01-28T01:35:32Z,42.805,6.029,13.3016,4.60069,2470.591,2023-1-28T03:42:00Z
2023-01-28T01:38:35Z,42.805,6.029,13.3021,4.60069,2470.6,2023-1-28T03:45:03Z
2023-01-28T01:41:38Z,42.805,6.029,13.3017,4.60072,2470.577,2023-1-28T03:48:06Z
2023-01-28T01:44:41Z,42.805,6.029,13.3016,4.60072,2470.6,2023-1-28T03:51:09Z
2023-01-28T01:47:44Z,42.805,6.029,13.3015,4.60069,2470.577,2023-1-28T03:54:12Z
2023-01-28T01:50:47Z,42.805,6.029,13.3018,4.60069,2470.577,2023-1-28T03:57:15Z
2023-01-28T01:53:50Z,42.805,6.029,13.3019,4.60071,2470.614,2023-1-28T04:00:18Z
2023-01-28T01:56:53Z,42.805,6.029,13.3021,4.60071,2470.591,2023-1-28T04:03:21Z
2023-01-28T01:59:57Z,42.805,6.029,13.3019,4.60071,2470.591,2023-1-28T04:06:24Z
2023-01-28T02:03:00Z,42.805,6.029,13.3020,4.60072,2470.591,2023-1-28T04:09:27Z
2023-01-28T02:06:03Z,42.805,6.029,13.3020,4.60072,2470.6,2023-1-28T04:12:30Z
2023-01-28T02:09:06Z,42.805,6.029,13.3019,4.60069,2470.577,2023-1-28T04:15:34Z
2023-01-28T02:12:09Z,42.805,6.029,13.3021,4.60070,2470.6,2023-1-28T04:18:37Z
2023-01-28T02:15:12Z,42.805,6.029,13.3020,4.60072,2470.577,2023-1-28T04:21:40Z
2023-01-28T02:18:15Z,42.805,6.029,13.3021,4.60069,2470.591,2023-1-28T04:24:43Z
2023-01-28T02:21:18Z,42.805,6.029,13.3018,4.60070,2470.577,2023-1-28T04:27:46Z
2023-01-28T02:24:21Z,42.805,6.029,13.3021,4.60070,2470.6,2023-1-28T04:30:49Z
2023-01-28T02:27:24Z,42.805,6.029,13.3020,4.60072,2470.567,2023-1-28T04:33:52Z
2023-01-28T02:30:27Z,42.805,6.029,13.3022,4.60074,2470.553,2023-1-28T04:36:55Z
2023-01-28T02:33:30Z,42.805,6.029,13.3019,4.60074,2470.553,2023-1-28T04:39:58Z
2023-01-28T02:36:34Z,42.805,6.029,13.3018,4.60070,2470.614,2023-1-28T04:43:01Z
2023-01-28T02:39:37Z,42.805,6.029,13.3020,4.60069,2470.591,2023-1-28T04:46:04Z
2023-01-28T02:42:40Z,42.805,6.029,13.3017,4.60072,2470.577,2023-1-28T04:49:07Z
2023-01-28T02:45:43Z,42.805,6.029,13.3018,4.60070,2470.553,2023-1-28T04:52:11Z
2023-01-28T02:48:46Z,42.805,6.029,13.3020,4.60067,2470.553,2023-1-28T04:55:14Z
2023-01-28T02:51:49Z,42.805,6.029,13.3021,4.60069,2470.577,2023-1-28T04:58:17Z
2023-01-28T02:54:52Z,42.805,6.029,13.3019,4.60072,2470.577,2023-1-28T05:01:20Z
2023-01-28T02:57:55Z,42.805,6.029,13.3019,4.60069,2470.591,2023-1-28T05:04:23Z
2023-01-28T03:00:58Z,42.805,6.029,13.3021,4.60072,2470.553,2023-1-28T05:07:26Z
2023-01-28T03:04:01Z,42.805,6.029,13.3022,4.60070,2470.577,2023-1-28T05:10:29Z
2023-01-28T03:07:04Z,42.805,6.029,13.3019,4.60072,2470.591,2023-1-28T05:13:32Z
2023-01-28T03:10:07Z,42.805,6.029,13.3018,4.60070,2470.591,2023-1-28T05:16:35Z
2023-01-28T03:13:11Z,42.805,6.029,13.3017,4.60070,2470.567,2023-1-28T05:19:38Z
2023-01-28T03:16:14Z,42.805,6.029,13.3014,4.60069,2470.567,2023-1-28T05:22:41Z
2023-01-28T03:19:17Z,42.805,6.029,13.3018,4.60069,2470.567,2023-1-28T05:25:44Z
2023-01-28T03:22:20Z,42.805,6.029,13.3019,4.60069,2470.553,2023-1-28T05:28:48Z
2023-01-28T03:25:23Z,42.805,6.029,13.3018,4.60069,2470.539,2023-1-28T05:31:51Z
2023-01-28T03:28:26Z,42.805,6.029,13.3019,4.60069,2470.553,2023-1-28T05:34:54Z
2023-01-28T03:31:29Z,42.805,6.029,13.3019,4.60072,2470.544,2023-1-28T05:37:57Z
2023-01-28T03:34:32Z,42.805,6.029,13.3020,4.60072,2470.53,2023-1-28T05:41:00Z
2023-01-28T03:37:35Z,42.805,6.029,13.3019,4.60069,2470.577,2023-1-28T05:44:03Z
2023-01-28T03:40:38Z,42.805,6.029,13.3014,4.60069,2470.591,2023-1-28T05:47:06Z
2023-01-28T03:43:41Z,42.805,6.029,13.3017,4.60072,2470.567,2023-1-28T05:50:09Z
2023-01-28T03:46:45Z,42.805,6.029,13.3019,4.60072,2470.53,2023-1-28T05:53:12Z
2023-01-28T03:49:48Z,42.805,6.029,13.3022,4.60072,2470.577,2023-1-28T05:56:15Z
2023-01-28T03:52:51Z,42.805,6.029,13.3019,4.60069,2470.567,2023-1-28T05:59:18Z
2023-01-28T03:55:54Z,42.805,6.029,13.3019,4.60071,2470.553,2023-1-28T06:02:22Z
2023-01-28T03:58:57Z,42.805,6.029,13.3017,4.60069,2470.577,2023-1-28T06:05:25Z
2023-01-28T04:02:00Z,42.805,6.029,13.3019,4.60069,2470.553,2023-1-28T06:08:28Z
2023-01-28T04:05:03Z,42.805,6.029,13.3016,4.60072,2470.567,2023-1-28T06:11:31Z
2023-01-28T04:08:06Z,42.805,6.029,13.3015,4.60069,2470.577,2023-1-28T06:14:34Z
2023-01-28T04:11:09Z,42.805,6.029,13.3015,4.60069,2470.577,2023-1-28T06:17:37Z
2023-01-28T04:14:12Z,42.805,6.029,13.3021,4.60069,2470.577,2023-1-28T06:20:40Z
2023-01-28T04:17:15Z,42.805,6.029,13.3020,4.60069,2470.553,2023-1-28T06:23:43Z
2023-01-28T04:20:18Z,42.805,6.029,13.3019,4.60069,2470.553,2023-1-28T06:26:46Z
2023-01-28T04:23:22Z,42.805,6.029,13.3017,4.60069,2470.577,2023-1-28T06:29:49Z
2023-01-28T04:26:25Z,42.805,6.029,13.3015,4.60072,2470.53,2023-1-28T06:32:52Z
2023-01-28T04:29:28Z,42.805,6.029,13.3021,4.60067,2470.567,2023-1-28T06:35:56Z
2023-01-28T04:32:31Z,42.805,6.029,13.3018,4.60069,2470.553,2023-1-28T06:38:59Z
2023-01-28T04:35:34Z,42.805,6.029,13.3015,4.60069,2470.553,2023-1-28T06:42:02Z
2023-01-28T04:38:37Z,42.805,6.029,13.3015,4.60070,2470.53,2023-1-28T06:45:05Z
2023-01-28T04:41:40Z,42.805,6.029,13.3019,4.60070,2470.53,2023-1-28T06:48:08Z
2023-01-28T04:44:43Z,42.805,6.029,13.3019,4.60068,2470.553,2023-1-28T06:51:11Z
2023-01-28T04:47:46Z,42.805,6.029,13.3014,4.60067,2470.553,2023-1-28T06:54:14Z
2023-01-28T04:50:49Z,42.805,6.029,13.3016,4.60069,2470.553,2023-1-28T06:57:17Z
2023-01-28T04:53:52Z,42.805,6.029,13.3019,4.60070,2470.53,2023-1-28T07:00:20Z
2023-01-28T04:56:55Z,42.805,6.029,13.3016,4.60069,2470.53,2023-1-28T07:03:23Z
2023-01-28T04:59:59Z,42.805,6.029,13.3021,4.60069,2470.507,2023-1-28T07:06:26Z
2023-01-28T05:03:02Z,42.805,6.029,13.3018,4.60069,2470.567,2023-1-28T07:09:29Z
2023-01-28T05:06:05Z,42.805,6.029,13.3019,4.60069,2470.493,2023-1-28T07:12:33Z
2023-01-28T05:09:08Z,42.805,6.029,13.3016,4.60069,2470.53,2023-1-28T07:15:36Z
2023-01-28T05:12:11Z,42.805,6.029,13.3019,4.60070,2470.553,2023-1-28T07:18:39Z
2023-01-28T05:15:14Z,42.805,6.029,13.3018,4.60069,2470.507,2023-1-28T07:21:42Z
2023-01-28T05:18:17Z,42.805,6.029,13.3017,4.60068,2470.53,2023-1-28T07:24:45Z
2023-01-28T05:21:20Z,42.805,6.029,13.3015,4.60068,2470.544,2023-1-28T07:27:48Z
2023-01-28T05:24:23Z,42.805,6.029,13.3019,4.60067,2470.553,2023-1-28T07:30:51Z
2023-01-28T05:27:26Z,42.805,6.029,13.3019,4.60069,2470.553,2023-1-28T07:33:54Z
2023-01-28T05:30:29Z,42.805,6.029,13.3017,4.60070,2470.507,2023-1-28T07:36:57Z
2023-01-28T05:33:32Z,42.805,6.029,13.3016,4.60069,2470.553,2023-1-28T07:40:00Z
2023-01-28T05:36:36Z,42.805,6.029,13.3021,4.60067,2470.53,2023-1-28T07:43:03Z
2023-01-28T05:39:39Z,42.805,6.029,13.3019,4.60073,2470.52,2023-1-28T07:46:06Z
2023-01-28T05:42:42Z,42.805,6.029,13.3018,4.60069,2470.567,2023-1-28T07:49:10Z
2023-01-28T05:45:45Z,42.805,6.029,13.3019,4.60069,2470.567,2023-1-28T07:52:13Z
2023-01-28T05:48:48Z,42.805,6.029,13.3021,4.60069,2470.516,2023-1-28T07:55:16Z
2023-01-28T05:51:51Z,42.805,6.029,13.3022,4.60070,2470.553,2023-1-28T07:58:19Z
2023-01-28T05:54:54Z,42.805,6.029,13.3019,4.60071,2470.544,2023-1-28T08:01:22Z
2023-01-28T05:57:57Z,42.805,6.029,13.3020,4.60069,2470.544,2023-1-28T08:04:25Z
2023-01-28T06:01:00Z,42.805,6.029,13.3019,4.60072,2470.53,2023-1-28T08:07:28Z
2023-01-28T06:04:03Z,42.805,6.029,13.3019,4.60071,2470.553,2023-1-28T08:10:31Z
2023-01-28T06:07:06Z,42.805,6.029,13.3016,4.60069,2470.544,2023-1-28T08:13:34Z
2023-01-28T06:10:09Z,42.805,6.029,13.3017,4.60070,2470.53,2023-1-28T08:16:37Z
2023-01-28T06:13:13Z,42.805,6.029,13.3021,4.60072,2470.53,2023-1-28T08:19:40Z
2023-01-28T06:16:16Z,42.805,6.029,13.3017,4.60069,2470.53,2023-1-28T08:22:43Z
2023-01-28T06:19:19Z,42.805,6.029,13.3019,4.60069,2470.567,2023-1-28T08:25:47Z
2023-01-28T06:22:22Z,42.805,6.029,13.3019,4.60069,2470.52,2023-1-28T08:28:50Z
2023-01-28T06:25:25Z,42.805,6.029,13.3020,4.60069,2470.567,2023-1-28T08:31:53Z
2023-01-28T06:28:28Z,42.805,6.029,13.3017,4.60069,2470.544,2023-1-28T08:34:56Z
2023-01-28T06:31:31Z,42.805,6.029,13.3021,4.60069,2470.53,2023-1-28T08:37:59Z
2023-01-28T06:34:34Z,42.805,6.029,13.3019,4.60071,2470.553,2023-1-28T08:41:02Z
2023-01-28T06:37:37Z,42.805,6.029,13.3016,4.60069,2470.507,2023-1-28T08:44:05Z
2023-01-28T06:40:40Z,42.805,6.029,13.3018,4.60069,2470.591,2023-1-28T08:47:08Z
2023-01-28T06:43:43Z,42.805,6.029,13.3019,4.60069,2470.53,2023-1-28T08:50:11Z
2023-01-28T06:46:46Z,42.805,6.029,13.3018,4.60068,2470.53,2023-1-28T08:53:14Z
2023-01-28T06:49:50Z,42.805,6.029,13.3020,4.60069,2470.53,2023-1-28T08:56:17Z
2023-01-28T06:52:53Z,42.805,6.029,13.3020,4.60069,2470.544,2023-1-28T08:59:21Z
2023-01-28T06:55:56Z,42.805,6.029,13.3019,4.60069,2470.544,2023-1-28T09:02:24Z
2023-01-28T06:58:59Z,42.805,6.029,13.3017,4.60072,2470.53,2023-1-28T09:05:27Z
2023-01-28T07:02:02Z,42.805,6.029,13.3017,4.60070,2470.53,2023-1-28T09:08:30Z
2023-01-28T07:05:05Z,42.805,6.029,13.3019,4.60069,2470.544,2023-1-28T09:11:33Z
2023-01-28T07:08:08Z,42.805,6.029,13.3019,4.60071,2470.53,2023-1-28T09:14:36Z
2023-01-28T07:11:11Z,42.805,6.029,13.3014,4.60069,2470.53,2023-1-28T09:17:39Z
2023-01-28T07:14:14Z,42.805,6.029,13.3018,4.60070,2470.53,2023-1-28T09:20:42Z
2023-01-28T07:17:17Z,42.805,6.029,13.3020,4.60070,2470.553,2023-1-28T09:23:45Z
2023-01-28T07:20:20Z,42.805,6.029,13.3016,4.60072,2470.553,2023-1-28T09:26:48Z
2023-01-28T07:23:23Z,42.805,6.029,13.3017,4.60070,2470.553,2023-1-28T09:29:51Z
2023-01-28T07:26:27Z,42.805,6.029,13.3016,4.60069,2470.544,2023-1-28T09:32:54Z
2023-01-28T07:29:30Z,42.805,6.029,13.3019,4.60069,2470.507,2023-1-28T09:35:58Z
2023-01-28T07:32:33Z,42.805,6.029,13.3019,4.60072,2470.507,2023-1-28T09:39:01Z
2023-01-28T07:35:36Z,42.805,6.029,13.3021,4.60069,2470.567,2023-1-28T09:42:04Z
2023-01-28T07:38:39Z,42.805,6.029,13.3019,4.60070,2470.553,2023-1-28T09:45:07Z
2023-01-28T07:41:42Z,42.805,6.029,13.3018,4.60071,2470.553,2023-1-28T09:48:10Z
2023-01-28T07:44:45Z,42.805,6.029,13.3017,4.60071,2470.567,2023-1-28T09:51:13Z
2023-01-28T07:47:48Z,42.805,6.029,13.3016,4.60077,2470.53,2023-1-28T09:54:16Z
2023-01-28T07:50:51Z,42.805,6.029,13.3019,4.60070,2470.591,2023-1-28T09:57:19Z
2023-01-28T07:53:54Z,42.805,6.029,13.3021,4.60072,2470.577,2023-1-28T10:00:22Z
2023-01-28T07:56:57Z,42.805,6.029,13.3019,4.60069,2470.544,2023-1-28T10:03:25Z
2023-01-28T08:00:00Z,42.805,6.029,13.3020,4.60070,2470.553,2023-1-28T10:06:28Z
2023-01-28T08:03:04Z,42.805,6.029,13.3018,4.60072,2470.553,2023-1-28T10:09:31Z
2023-01-28T08:06:07Z,42.805,6.029,13.3016,4.60069,2470.553,2023-1-28T10:12:35Z
2023-01-28T08:09:10Z,42.805,6.029,13.3018,4.60070,2470.553,2023-1-28T10:15:38Z
2023-01-28T08:12:13Z,42.805,6.029,13.3017,4.60072,2470.577,2023-1-28T10:18:41Z
2023-01-28T08:15:16Z,42.805,6.029,13.3020,4.60069,2470.6,2023-1-28T10:21:44Z
2023-01-28T08:18:19Z,42.805,6.029,13.3017,4.60069,2470.563,2023-1-28T10:24:47Z
2023-01-28T08:21:22Z,42.805,6.029,13.3020,4.60072,2470.577,2023-1-28T10:27:50Z
2023-01-28T08:24:25Z,42.805,6.029,13.3017,4.60071,2470.567,2023-1-28T10:30:53Z
2023-01-28T08:27:28Z,42.805,6.029,13.3020,4.60069,2470.563,2023-1-28T10:33:56Z
2023-01-28T08:30:31Z,42.805,6.029,13.3020,4.60070,2470.563,2023-1-28T10:36:59Z
2023-01-28T08:33:34Z,42.805,6.029,13.3019,4.60073,2470.6,2023-1-28T10:40:02Z
2023-01-28T08:36:38Z,42.805,6.029,13.3019,4.60070,2470.591,2023-1-28T10:43:05Z
2023-01-28T08:39:41Z,42.805,6.029,13.3018,4.60071,2470.6,2023-1-28T10:46:09Z
2023-01-28T08:42:44Z,42.805,6.029,13.3020,4.60070,2470.577,2023-1-28T10:49:12Z
2023-01-28T08:45:47Z,42.805,6.029,13.3016,4.60072,2470.567,2023-1-28T10:52:15Z
2023-01-28T08:48:50Z,42.805,6.029,13.3019,4.60070,2470.577,2023-1-28T10:55:18Z
2023-01-28T08:51:53Z,42.805,6.029,13.3021,4.60072,2470.6,2023-1-28T10:58:21Z
2023-01-28T08:54:56Z,42.805,6.029,13.3020,4.60072,2470.6,2023-1-28T11:01:24Z
2023-01-28T08:57:59Z,42.805,6.029,13.3018,4.60069,2470.586,2023-1-28T11:04:27Z
2023-01-28T09:01:02Z,42.805,6.029,13.3018,4.60071,2470.6,2023-1-28T11:07:30Z
2023-01-28T09:04:05Z,42.805,6.029,13.3018,4.60072,2470.591,2023-1-28T11:10:33Z
2023-01-28T09:07:08Z,42.805,6.029,13.3019,4.60069,2470.6,2023-1-28T11:13:36Z
2023-01-28T09:10:12Z,42.805,6.029,13.3021,4.60071,2470.614,2023-1-28T11:16:39Z
2023-01-28T09:13:15Z,42.805,6.029,13.3021,4.60071,2470.614,2023-1-28T11:19:43Z
2023-01-28T09:16:18Z,42.805,6.029,13.3017,4.60072,2470.624,2023-1-28T11:22:46Z
2023-01-28T09:19:21Z,42.805,6.029,13.3020,4.60074,2470.624,2023-1-28T11:25:49Z
2023-01-28T09:22:24Z,42.805,6.029,13.3016,4.60070,2470.637,2023-1-28T11:28:52Z
2023-01-28T09:25:27Z,42.805,6.029,13.3021,4.60070,2470.67,2023-1-28T11:31:55Z
2023-01-28T09:28:30Z,42.805,6.029,13.3018,4.60070,2470.646,2023-1-28T11:34:58Z
2023-01-28T09:31:33Z,42.805,6.029,13.3018,4.60072,2470.624,2023-1-28T11:38:01Z
2023-01-28T09:34:36Z,42.805,6.029,13.3017,4.60070,2470.624,2023-1-28T11:41:04Z
2023-01-28T09:37:39Z,42.805,6.029,13.3016,4.60071,2470.624,2023-1-28T11:44:07Z
2023-01-28T09:40:42Z,42.805,6.029,13.3020,4.60071,2470.661,2023-1-28T11:47:10Z
2023-01-28T09:43:46Z,42.805,6.029,13.3021,4.60072,2470.67,2023-1-28T11:50:14Z
2023-01-28T09:46:49Z,42.805,6.029,13.3020,4.60069,2470.624,2023-1-28T11:53:17Z
2023-01-28T09:49:52Z,42.805,6.029,13.3018,4.60069,2470.684,2023-1-28T11:56:20Z
2023-01-28T09:52:55Z,42.805,6.029,13.3019,4.60070,2470.684,2023-1-28T11:59:23Z
2023-01-28T09:55:58Z,42.805,6.029,13.3016,4.60070,2470.646,2023-1-28T12:02:26Z
2023-01-28T09:59:01Z,42.805,6.029,13.3018,4.60069,2470.67,2023-1-28T12:05:29Z
2023-01-28T10:02:04Z,42.805,6.029,13.3016,4.60070,2470.67,2023-1-28T12:08:32Z
2023-01-28T10:05:07Z,42.805,6.029,13.3019,4.60072,2470.684,2023-1-28T12:11:35Z
2023-01-28T10:08:10Z,42.805,6.029,13.3016,4.60070,2470.633,2023-1-28T12:14:38Z
2023-01-28T10:11:13Z,42.805,6.029,13.3015,4.60071,2470.67,2023-1-28T12:17:41Z
2023-01-28T10:14:16Z,42.805,6.029,13.3019,4.60070,2470.707,2023-1-28T12:20:44Z
2023-01-28T10:17:20Z,42.805,6.029,13.3015,4.60069,2470.67,2023-1-28T12:23:48Z
2023-01-28T10:20:23Z,42.805,6.029,13.3019,4.60069,2470.684,2023-1-28T12:26:51Z
2023-01-28T10:23:26Z,42.805,6.029,13.3015,4.60069,2470.67,2023-1-28T12:29:54Z
2023-01-28T10:26:29Z,42.805,6.029,13.3018,4.60069,2470.693,2023-1-28T12:32:57Z
2023-01-28T10:29:32Z,42.805,6.029,13.3020,4.60071,2470.684,2023-1-28T12:36:00Z
2023-01-28T10:32:35Z,42.805,6.029,13.3018,4.60070,2470.707,2023-1-28T12:39:03Z
2023-01-28T10:35:38Z,42.805,6.029,13.3018,4.60071,2470.693,2023-1-28T12:42:06Z
2023-01-28T10:38:41Z,42.805,6.029,13.3016,4.60070,2470.693,2023-1-28T12:45:09Z
2023-01-28T10:41:44Z,42.805,6.029,13.3022,4.60070,2470.73,2023-1-28T12:48:12Z
2023-01-28T10:44:47Z,42.805,6.029,13.3020,4.60070,2470.707,2023-1-28T12:51:15Z
2023-01-28T10:47:50Z,42.805,6.029,13.3015,4.60070,2470.693,2023-1-28T12:54:18Z
2023-01-28T10:50:54Z,42.805,6.029,13.3023,4.60071,2470.703,2023-1-28T12:57:22Z
2023-01-28T10:53:57Z,42.805,6.029,13.3020,4.60070,2470.717,2023-1-28T13:00:25Z
2023-01-28T10:57:00Z,42.805,6.029,13.3014,4.60070,2470.73,2023-1-28T13:03:28Z
2023-01-28T11:00:03Z,42.805,6.029,13.3018,4.60070,2470.717,2023-1-28T13:06:31Z
2023-01-28T11:03:06Z,42.805,6.029,13.3021,4.60071,2470.693,2023-1-28T13:09:34Z
2023-01-28T11:06:09Z,42.805,6.029,13.3019,4.60071,2470.73,2023-1-28T13:12:37Z
2023-01-28T11:09:12Z,42.805,6.029,13.3017,4.60071,2470.67,2023-1-28T13:15:40Z
2023-01-28T11:12:15Z,42.805,6.029,13.3015,4.60070,2470.73,2023-1-28T13:18:43Z
2023-01-28T11:15:18Z,42.805,6.029,13.3020,4.60074,2470.693,2023-1-28T13:21:46Z
2023-01-28T11:18:21Z,42.805,6.029,13.3015,4.60069,2470.707,2023-1-28T13:24:49Z
2023-01-28T11:21:24Z,42.805,6.029,13.3021,4.60070,2470.717,2023-1-28T13:27:52Z
2023-01-28T11:24:28Z,42.805,6.029,13.3019,4.60069,2470.707,2023-1-28T13:30:56Z
2023-01-28T11:27:31Z,42.805,6.029,13.3017,4.60069,2470.693,2023-1-28T13:33:59Z
2023-01-28T11:30:34Z,42.805,6.029,13.3019,4.60069,2470.67,2023-1-28T13:37:02Z
2023-01-28T11:33:37Z,42.805,6.029,13.3015,4.60069,2470.717,2023-1-28T13:40:05Z
2023-01-28T11:36:40Z,42.805,6.029,13.3020,4.60069,2470.707,2023-1-28T13:43:08Z
2023-01-28T11:39:43Z,42.805,6.029,13.3019,4.60071,2470.717,2023-1-28T13:46:11Z
2023-01-28T11:42:46Z,42.805,6.029,13.3020,4.60069,2470.73,2023-1-28T13:49:14Z
2023-01-28T11:45:49Z,42.805,6.029,13.3019,4.60070,2470.717,2023-1-28T13:52:17Z
2023-01-28T11:48:52Z,42.805,6.029,13.3016,4.60069,2470.717,2023-1-28T13:55:20Z
2023-01-28T11:51:55Z,42.805,6.029,13.3016,4.60069,2470.693,2023-1-28T13:58:23Z
2023-01-28T11:54:58Z,42.805,6.029,13.3020,4.60071,2470.693,2023-1-28T14:01:26Z
2023-01-28T11:58:02Z,42.805,6.029,13.3019,4.60070,2470.754,2023-1-28T14:04:30Z
2023-01-28T12:01:05Z,42.805,6.029,13.3016,4.60069,2470.693,2023-1-28T14:07:33Z
2023-01-28T12:04:08Z,42.805,6.029,13.3021,4.60069,2470.693,2023-1-28T14:10:36Z
2023-01-28T12:07:11Z,42.805,6.029,13.3015,4.60073,2470.707,2023-1-28T14:13:39Z
2023-01-28T12:10:14Z,42.805,6.029,13.3016,4.60070,2470.717,2023-1-28T14:16:42Z
2023-01-28T12:13:17Z,42.805,6.029,13.3021,4.60070,2470.693,2023-1-28T14:19:45Z
2023-01-28T12:16:20Z,42.805,6.029,13.3016,4.60071,2470.717,2023-1-28T14:22:48Z
2023-01-28T12:19:23Z,42.805,6.029,13.3021,4.60072,2470.707,2023-1-28T14:25:51Z
2023-01-28T12:22:26Z,42.805,6.029,13.3013,4.60071,2470.693,2023-1-28T14:28:54Z
2023-01-28T12:25:29Z,42.805,6.029,13.3018,4.60072,2470.707,2023-1-28T14:31:57Z
2023-01-28T12:28:32Z,42.805,6.029,13.3016,4.60069,2470.693,2023-1-28T14:35:01Z
2023-01-28T12:31:36Z,42.805,6.029,13.3018,4.60069,2470.67,2023-1-28T14:38:04Z
2023-01-28T12:34:39Z,42.805,6.029,13.3015,4.60072,2470.707,2023-1-28T14:41:07Z
2023-01-28T12:37:42Z,42.805,6.029,13.3015,4.60070,2470.73,2023-1-28T14:44:10Z
2023-01-28T12:40:45Z,42.805,6.029,13.3015,4.60072,2470.717,2023-1-28T14:47:13Z
2023-01-28T12:43:48Z,42.805,6.029,13.3021,4.60070,2470.693,2023-1-28T14:50:16Z
2023-01-28T12:46:51Z,42.805,6.029,13.3015,4.60070,2470.693,2023-1-28T14:53:19Z
2023-01-28T12:49:54Z,42.805,6.029,13.3019,4.60069,2470.717,2023-1-28T14:56:22Z
2023-01-28T12:52:57Z,42.805,6.029,13.3018,4.60069,2470.717,2023-1-28T14:59:25Z
2023-01-28T12:56:00Z,42.805,6.029,13.3024,4.60069,2470.693,2023-1-28T15:02:28Z
2023-01-28T12:59:03Z,42.805,6.029,13.3019,4.60069,2470.717,2023-1-28T15:05:31Z
2023-01-28T13:02:06Z,42.805,6.029,13.3019,4.60069,2470.679,2023-1-28T15:08:35Z
2023-01-28T13:05:10Z,42.805,6.029,13.3020,4.60069,2470.717,2023-1-28T15:11:38Z
2023-01-28T13:08:13Z,42.805,6.029,13.3021,4.60070,2470.693,2023-1-28T15:14:41Z
2023-01-28T13:11:16Z,42.805,6.029,13.3020,4.60068,2470.693,2023-1-28T15:17:44Z
2023-01-28T13:14:19Z,42.805,6.029,13.3021,4.60072,2470.73,2023-1-28T15:20:47Z
2023-01-28T13:17:22Z,42.805,6.029,13.3022,4.60069,2470.73,2023-1-28T15:23:50Z
2023-01-28T13:20:25Z,42.805,6.029,13.3021,4.60069,2470.684,2023-1-28T15:26:53Z
2023-01-28T13:23:28Z,42.805,6.029,13.3019,4.60072,2470.693,2023-1-28T15:29:56Z
2023-01-28T13:26:31Z,42.805,6.029,13.3019,4.60069,2470.693,2023-1-28T15:32:59Z
2023-01-28T13:29:34Z,42.805,6.029,13.3018,4.60070,2470.693,2023-1-28T15:36:02Z
2023-01-28T13:32:37Z,42.805,6.029,13.3016,4.60072,2470.717,2023-1-28T15:39:05Z
2023-01-28T13:35:40Z,42.805,6.029,13.3016,4.60070,2470.693,2023-1-28T15:42:09Z
2023-01-28T13:38:44Z,42.805,6.029,13.3021,4.60069,2470.707,2023-1-28T15:45:12Z
2023-01-28T13:41:47Z,42.805,6.029,13.3019,4.60069,2470.74,2023-1-28T15:48:15Z
2023-01-28T13:44:50Z,42.805,6.029,13.3021,4.60069,2470.67,2023-1-28T15:51:18Z
2023-01-28T13:47:53Z,42.805,6.029,13.3021,4.60069,2470.684,2023-1-28T15:54:21Z
2023-01-28T13:50:56Z,42.805,6.029,13.3014,4.60069,2470.67,2023-1-28T15:57:24Z
2023-01-28T13:53:59Z,42.805,6.029,13.3021,4.60072,2470.67,2023-1-28T16:00:27Z
2023-01-28T13:57:02Z,42.805,6.029,13.3019,4.60069,2470.684,2023-1-28T16:03:30Z
2023-01-28T14:00:05Z,42.805,6.029,13.3018,4.60072,2470.707,2023-1-28T16:06:33Z
2023-01-28T14:03:08Z,42.805,6.029,13.3018,4.60072,2470.67,2023-1-28T16:09:36Z
2023-01-28T14:06:11Z,42.805,6.029,13.3019,4.60069,2470.67,2023-1-28T16:12:39Z
2023-01-28T14:09:14Z,42.805,6.029,13.3017,4.60069,2470.684,2023-1-28T16:15:43Z
2023-01-28T14:12:18Z,42.805,6.029,13.3021,4.60073,2470.707,2023-1-28T16:18:46Z
2023-01-28T14:15:21Z,42.805,6.029,13.3018,4.60073,2470.67,2023-1-28T16:21:49Z
2023-01-28T14:18:24Z,42.805,6.029,13.3015,4.60071,2470.67,2023-1-28T16:24:52Z
2023-01-28T14:21:27Z,42.805,6.029,13.3024,4.60070,2470.646,2023-1-28T16:27:55Z
2023-01-28T14:24:30Z,42.805,6.029,13.3017,4.60073,2470.67,2023-1-28T16:30:58Z
2023-01-28T14:27:33Z,42.805,6.029,13.3019,4.60069,2470.684,2023-1-28T16:34:01Z
2023-01-28T14:30:36Z,42.805,6.029,13.3021,4.60070,2470.693,2023-1-28T16:37:04Z
2023-01-28T14:33:39Z,42.805,6.029,13.3019,4.60074,2470.67,2023-1-28T16:40:07Z
2023-01-28T14:36:42Z,42.805,6.029,13.3016,4.60070,2470.67,2023-1-28T16:43:10Z
2023-01-28T14:39:45Z,42.805,6.029,13.3021,4.60071,2470.67,2023-1-28T16:46:14Z
2023-01-28T14:42:48Z,42.805,6.029,13.3023,4.60072,2470.67,2023-1-28T16:49:17Z
2023-01-28T14:45:52Z,42.805,6.029,13.3019,4.60074,2470.693,2023-1-28T16:52:20Z
2023-01-28T14:48:55Z,42.805,6.029,13.3019,4.60072,2470.661,2023-1-28T16:55:23Z
2023-01-28T14:51:58Z,42.805,6.029,13.3016,4.60073,2470.693,2023-1-28T16:58:26Z
2023-01-28T14:55:01Z,42.805,6.029,13.3019,4.60072,2470.624,2023-1-28T17:01:29Z
2023-01-28T14:58:04Z,42.805,6.029,13.3019,4.60069,2470.684,2023-1-28T17:04:32Z
2023-01-28T15:01:07Z,42.805,6.029,13.3021,4.60070,2470.707,2023-1-28T17:07:35Z
2023-01-28T15:04:10Z,42.805,6.029,13.3027,4.60070,2470.67,2023-1-28T17:10:38Z
2023-01-28T15:07:13Z,42.805,6.029,13.3020,4.60074,2470.67,2023-1-28T17:13:41Z
2023-01-28T15:10:16Z,42.805,6.029,13.3016,4.60075,2470.684,2023-1-28T17:16:44Z
2023-01-28T15:13:19Z,42.805,6.029,13.3018,4.60071,2470.646,2023-1-28T17:19:48Z